Location: Krasnoyarskiy Pitomnik
(51.1333°N, 71.6167°E)
Time: 10:22:51
(UTC+00:00)

CZ-2C R/B - Pass Details

Date: 22 October 2021
Orbit: 784 x 871 km, 98.2° (Epoch: 06 December)

Event Time Altitude Azimuth Distance (km) Brightness Sun altitude
Rises 12:31:08 0° 22° (NNE) 3,472 5.6 -4.6°
Reaches altitude 10° 12:33:56 10° 34° (NE) 2,524 4.8 -5.0°
Maximum altitude 12:38:39 27° 91° (E) 1,600 3.6 -5.7°
Drops below altitude 10° 12:43:17 10° 148° (SSE) 2,478 4.9 -6.4°
Sets 12:45:59 0° 161° (SSE) 3,395 5.7 -6.9°
